| time (UTC) | temp F | wind direction | speed MPH | gust MPH | rain 1hr in | rain 24hr in | rain mn in | humidity % | barometer mb |
| 20260507080807 | 34 | 165 | 3.0 | 5.0 | 0.00 | 0.00 | 0.00 | 76 | 1014.4 |
| 20260507080308 | 34 | 274 | 2.0 | 5.0 | 0.00 | 0.00 | 0.00 | 76 | 1014.4 |
| 20260507070815 | 36 | 145 | 3.0 | 5.0 | 0.00 | 0.00 | 0.00 | 72 | 1013.8 |
| 20260507060807 | 41 | 286 | 3.0 | 5.0 | 0.00 | 0.00 | 0.00 | 60 | 1013.0 |
| 20260507060307 | 41 | 273 | 3.0 | 9.0 | 0.00 | 0.00 | 0.00 | 60 | 1012.9 |
| 20260507050308 | 43 | 217 | 3.0 | 9.0 | 0.00 | 0.00 | 0.00 | 59 | 1012.4 |
| 20260507040807 | 45 | 273 | 4.0 | 6.0 | 0.00 | 0.00 | 0.00 | 63 | 1012.0 |
| 20260507040306 | 46 | 59 | 3.0 | 9.0 | 0.00 | 0.00 | 0.00 | 62 | 1012.0 |
| 20260507020808 | 50 | 331 | 5.0 | 8.0 | 0.00 | 0.00 | 0.00 | 56 | 1011.0 |
| 20260507020308 | 50 | 274 | 6.0 | 12.0 | 0.00 | 0.00 | 0.00 | 56 | 1010.6 |
| 20260507010807 | 50 | 272 | 5.0 | 9.0 | 0.00 | 0.00 | 0.00 | 55 | 1010.7 |
| 20260507010308 | 50 | 316 | 5.0 | 10.0 | 0.00 | 0.00 | 0.00 | 56 | 1010.8 |
| 20260507000807 | 49 | 286 | 6.0 | 9.0 | 0.00 | 0.00 | 0.00 | 56 | 1011.0 |
| 20260506230807 | 50 | 302 | 5.0 | 10.0 | 0.00 | 0.00 | 0.00 | 55 | 1010.9 |
| 20260506230307 | 50 | 290 | 5.0 | 9.0 | 0.00 | 0.00 | 0.00 | 55 | 1010.9 |
| 20260506220807 | 50 | 343 | 5.0 | 8.0 | 0.00 | 0.00 | 0.00 | 56 | 1010.9 |
| 20260506220309 | 50 | 303 | 5.0 | 10.0 | 0.00 | 0.00 | 0.00 | 55 | 1010.9 |
| 20260506210806 | 51 | 270 | 3.0 | 8.0 | 0.00 | 0.00 | 0.00 | 54 | 1010.8 |
| 20260506200806 | 49 | 293 | 5.0 | 8.0 | 0.00 | 0.00 | 0.00 | 57 | 1010.9 |
| 20260506200308 | 49 | 279 | 6.0 | 9.0 | 0.00 | 0.00 | 0.00 | 57 | 1011.0 |
| 20260506190808 | 49 | 278 | 5.0 | 8.0 | 0.00 | 0.00 | 0.00 | 56 | 1010.6 |
| 20260506190310 | 49 | 277 | 4.0 | 7.0 | 0.00 | 0.00 | 0.00 | 57 | 1010.7 |
| 20260506180807 | 47 | 336 | 3.0 | 6.0 | 0.00 | 0.00 | 0.00 | 60 | 1011.0 |
| 20260506170307 | 44 | 273 | 3.0 | 6.0 | 0.00 | 0.00 | 0.00 | 68 | 1011.5 |
| 20260506160806 | 41 | 151 | 4.0 | 7.0 | 0.00 | 0.00 | 0.00 | 72 | 1011.5 |
| 20260506160307 | 41 | 137 | 3.0 | 7.0 | 0.00 | 0.00 | 0.00 | 73 | 1011.5 |
| 20260506150807 | 38 | 275 | 3.0 | 3.0 | 0.00 | 0.00 | 0.00 | 79 | 1011.5 |
| 20260506150307 | 38 | 267 | 3.0 | 5.0 | 0.00 | 0.00 | 0.00 | 79 | 1011.5 |
| 20260506140806 | 32 | 262 | 2.0 | 2.0 | 0.00 | 0.00 | 0.00 | 88 | 1011.4 |
| 20260506140308 | 32 | 280 | 2.0 | 3.0 | 0.00 | 0.00 | 0.00 | 89 | 1011.3 |
| 20260506130806 | 28 | 120 | 2.0 | 3.0 | 0.00 | 0.00 | 0.00 | 94 | 1010.8 |
| 20260506120806 | 30 | 286 | 2.0 | 3.0 | 0.00 | 0.00 | 0.00 | 90 | 1010.2 |
| 20260506120306 | 30 | 285 | 2.0 | 3.0 | 0.00 | 0.00 | 0.00 | 89 | 1010.2 |
| 20260506110807 | 33 | 268 | 2.0 | 3.0 | 0.00 | 0.00 | 0.00 | 86 | 1009.6 |
| 20260506110306 | 33 | 273 | 2.0 | 5.0 | 0.00 | 0.00 | 0.00 | 86 | 1009.8 |
| 20260506100806 | 35 | 288 | 2.0 | 3.0 | 0.00 | 0.00 | 0.00 | 82 | 1009.2 |
| 20260506100307 | 35 | 274 | 3.0 | 6.0 | 0.00 | 0.00 | 0.00 | 82 | 1009.1 |
| 20260506090307 | 38 | 273 | 2.0 | 5.0 | 0.00 | 0.00 | 0.00 | 77 | 1008.8 |